Regional Weather Roundup
Issued by NWS Charleston, SC

Current Version | Previous Version | Graphics & Text | Print | Product List | Glossary On
Versions: 1 2 3 4 5 6 7 8 9 10 11 12 13 14 15 16 17 18 19 20 21 22 23 24 25 26 27 28 29 30 31 32 33 34 35 36 37 38 39 40 41 42 43 44 45 46 47 48 49 50
000
ASUS42 KCHS 021311
RWRCHS

REGIONAL WEATHER ROUNDUP
NATIONAL WEATHER SERVICE CHARLESTON SC
800 AM EST MON MAR 02 2015

NOTE: "FAIR" INDICATES FEW OR NO CLOUDS BELOW 12,000 FEET WITH NO
SIGNIFICANT WEATHER AND/OR OBSTRUCTIONS TO VISIBILITY.

NOT ALL STATIONS ARE QUALITY CONTROLLED BY THE NATIONAL
WEATHER SERVICE. USE DATA WITH CAUTION...ESPECIALLY
DEWPOINT OBSERVATIONS.

SCZ027-030-031-034>040-042>050-021400-
...SOUTHEAST SOUTH CAROLINA...

CITY           SKY/WX    TMP DP  RH WIND       PRES   REMARKS
N CHARLESTON   FOG       46  46 100 W7        30.30R VSB 3/4
WATERFRONT PRK   N/A     46 N/A N/A W5          N/A
MOUNT PLEASANT FOG       46  46 100 SW6       30.28R VSB 1/2
PINOPOLIS        N/A     46  46 100 SW6       30.21R
MONCKS CORNER  FOG       48  46  93 CALM      30.29R VSB 1/2
SUMMERVILLE    FOG       45  45 100 SW5       30.31R VSB 1/4
BEAUFORT MCAS  CLOUDY    48  47  96 SW5       30.31R FOG
BEAUFORT ARPT  FOG       48  48 100 CALM      30.30R VSB 3/4
HILTON HEAD IS FOG       48  48 100 S5        30.31F VSB 1/2
WALTERBORO     FOG       46  46 100 SW3       30.31R VSB 1/4
ALLENDALE      FOG       46  46 100 VRB3      30.29S VSB<1/4

...SOUTHERN MIDLANDS AND PEE DEE...

CITY           SKY/WX    TMP DP  RH WIND       PRES   REMARKS
GEORGETOWN     NOT AVBL
KINGSTREE      NOT AVBL
ORANGEBURG     FOG       47  45  93 SW6       30.27S VSB 1/4
BARNWELL       FOG       46  46 100 W5        30.30R VSB 1/4
AIKEN          FOG       45  45 100 W8        30.30R VSB 1/4
MANNING        FOG      N/A N/A N/A SW5       30.27S VSB 1/4
COLUMBIA       FOG       48  46  93 SW6       30.26R VSB 1/4
SUMTER         FOG       46  46  98 SW6       30.24F VSB 1/4
FLORENCE       FOG       45  44  97 SW7       30.25S VSB 1/4
MYRTLE BEACH   FOG       46  45  93 W5        30.29R VSB 1/4
N MYRTLE BEACH CLOUDY    46  45  96 W5        30.26R FOG

$$

GAZ063-065-086>088-099>101-113>116-118-119-134>141-150-021400-
...SOUTHEAST GEORGIA...

CITY           SKY/WX    TMP DP  RH WIND       PRES   REMARKS
SAVANNAH ARPT  FOG       48  47  96 CALM      30.31S VSB 3/4
HUNTER AAF     CLOUDY    48  48 100 W2        30.28R
FORT STEWART   FOG       49  49  97 CALM      30.29R VSB 1/4
STATESBORO     FOG       47  47 100 CALM      30.31R VSB 1/4
SYLVANIA       FOG       47  47 100 CALM      30.32R VSB 1/4
CLAXTON        FOG       48  48 100 CALM      30.31R VSB 1/4

...CSRA...CENTRAL AND FAR SOUTHEAST GEORGIA...

CITY           SKY/WX    TMP DP  RH WIND       PRES   REMARKS
THOMSON        CLOUDY    48  48 100 SW3       30.34R
AUGUSTA-BUSH   CLOUDY    46  45  96 W5        30.30R FOG
AUGUSTA-DANIEL CLOUDY    49  47  93 W6        30.30R FOG
SWAINSBORO     FOG       48  48 100 W3        30.32R VSB<1/4
VIDALIA        FOG       48  48 100 CALM      30.31R VSB<1/4
EASTMAN        FOG       48  48 100 CALM      30.35R VSB<1/4
HAZLEHURST     FOG       50  50 100 CALM      30.30S VSB<1/4
ALMA           FOG       51  50  96 CALM      30.31R VSB 3/4
WAYCROSS       FOG       55  55 100 CALM      30.31S VSB<1/4
JESUP          FOG       54  54 100 CALM      30.32R VSB<1/4
BAXLEY         CLOUDY    52  52 100 CALM      30.31R FOG
BRUNSWICK      CLOUDY    52  52 100 SE5       30.32F VSB 1/4
SAINT SIMONS   FOG       51  51 100 E3        30.32R VSB 1/4

$$

SCZ027-028-034-036>038-045-046-048>050-GAZ119-141-021400-
...LAKE AND SUPPLEMENTAL COASTAL OBSERVATIONS...

STATION/POSITION TIME  TEMP    WIND        PRES    WAVE   SWELL
                       AIR SEA DIR/SP/G            HT/PER HT/PER/DIR
                 (UTC) (F)     (DEG/KT/KT) (MB)    (FT/S) (FT/S/D)
UPR LAKE MARION  NOT AVBL
WINYAH BAY       NOT AVBL
LAKE MURRAY      1200   46     270/  4/  5 1023.7F
ACE BASIN NERRS  NOT AVBL
FORT PULASKI     1200   48 48  260/  4/  5 1026.9R
SAPELO ISLAND    1200   51        CALM     1026.0S

$$

ANZ835-935-AMZ111-154-330-350-352-354-370-450-454-472-021400-
...C-MAN AND BUOY OBSERVATIONS...

STATION/POSITION TIME  TEMP    WIND        PRES    WAVE   SWELL
                       AIR SEA DIR/SP/G            HT/PER HT/PER/DIR
                 (UTC) (F)     (DEG/KT/KT) (MB)    (FT/S) (FT/S/D)
BUOY 41004       1250   60 68  270/ 16/ 17 1025.1R   4/ 8   3/ 8
BUOY 41008       1250   51 54  340/  6/ 10 1026.6R   4/10   3/ 90/10
FOLLY BEACH CMAN 1300   47     250/  6/  9 1026.4R
CAPERS NEARSHORE NOT AVBL
FRIPP NEARSHORE  1200   47     230/  6/  8 1025.2R


STATION/POSITION TIME  TEMP    WIND        PRES    WAVE   SWELL
                       AIR SEA DIR/SP/G            HT/PER HT/PER/DIR
                 (UTC) (F)     (DEG/KT/KT) (MB)    (FT/S) (FT/S/D)
5E ST. MARYS GA  1221      51                N/A     4/10   2/100/11
FRYING PAN BUOY  1250   57 62  260/ 16/ 17 1024.8R   4/ 8   3/120/ 8
BUOY 41025       NOT AVBL
CAPE LOOKOUT NC  1200   46     250/  8/ 10 1022.7F
BUOY 41002       1250   71 72  220/ 16/ 17 1025.0S   6/ 9   3/110/ 9
BUOY 41010       1220   73 75  180/  6/  6 1026.0R
ST AUGUSTINE FL  1300   53     350/  4/  5 1027.3R


$$



USA.gov is the U.S. government's official web portal to all federal, state and local government web resources and services.